�������C�����ː����j�^�v���󋵏��
Date,Time,Cs137(Bq/L),Cs134(Bq/L),�S��(Bq/L)
2017/07/19,00:00,0.91,0.037,ND
2017/07/19,00:10,0.89,0.064,ND
2017/07/19,00:20,0.84,0.080,ND
2017/07/19,00:30,0.86,0.061,ND
2017/07/19,00:40,0.83,0.067,ND
2017/07/19,00:50,0.80,0.068,ND
2017/07/19,01:00,0.76,0.062,ND
2017/07/19,01:10,0.75,0.055,ND
2017/07/19,01:20,0.73,0.049,ND
2017/07/19,01:30,0.76,0.046,ND
2017/07/19,01:40,0.74,0.045,ND
2017/07/19,01:50,0.73,0.044,ND
2017/07/19,02:00,0.74,0.041,ND
2017/07/19,02:10,0.71,0.067,ND
2017/07/19,02:20,0.77,0.030,ND
2017/07/19,02:30,0.78,0.026,ND
2017/07/19,02:40,0.80,0.030,ND
2017/07/19,02:50,0.86,ND,ND
2017/07/19,03:00,0.89,ND,ND
2017/07/19,03:10,0.84,0.032,ND
2017/07/19,03:20,0.83,0.028,ND
2017/07/19,03:30,0.82,0.034,ND
2017/07/19,03:40,0.85,ND,ND
2017/07/19,03:50,0.79,0.037,ND
2017/07/19,04:00,0.74,0.058,ND
2017/07/19,04:10,0.73,0.050,ND
2017/07/19,04:20,0.73,0.051,ND
2017/07/19,04:30,0.79,ND,ND
2017/07/19,04:40,0.75,0.028,ND
2017/07/19,04:50,0.74,0.032,ND
2017/07/19,05:00,0.74,0.034,ND
2017/07/19,05:10,0.74,0.046,ND
2017/07/19,05:20,0.74,0.049,ND
2017/07/19,05:30,0.73,0.052,ND
2017/07/19,05:40,0.68,0.067,ND
2017/07/19,05:50,0.68,0.067,ND
2017/07/19,06:00,0.67,0.065,ND
2017/07/19,06:10,0.68,0.034,ND
2017/07/19,06:20,0.70,0.030,ND
2017/07/19,06:30,0.68,0.035,ND
2017/07/19,06:40,0.70,0.038,ND
2017/07/19,06:50,0.71,0.030,ND
2017/07/19,07:00,0.71,0.025,ND
2017/07/19,07:10,0.73,0.026,ND
2017/07/19,07:20,0.74,ND,ND
2017/07/19,07:30,0.74,ND,ND
2017/07/19,07:40,0.74,ND,ND
2017/07/19,07:50,0.74,ND,ND
2017/07/19,08:00,0.73,ND,ND
2017/07/19,08:10,0.74,ND,ND
2017/07/19,08:20,0.75,ND,ND
2017/07/19,08:30,0.76,ND,ND
2017/07/19,08:40,0.76,ND,ND
2017/07/19,08:50,0.78,ND,ND
2017/07/19,09:00,0.80,ND,ND
2017/07/19,09:10,0.75,0.031,ND
2017/07/19,09:20,0.76,0.033,ND
2017/07/19,09:30,0.76,0.033,ND
2017/07/19,09:40,0.74,0.037,ND
2017/07/19,09:50,0.74,0.036,ND
2017/07/19,10:00,0.74,0.032,ND
2017/07/19,10:10,0.74,0.035,ND
2017/07/19,10:20,0.74,0.046,ND
2017/07/19,10:30,0.76,0.041,ND
2017/07/19,10:40,0.76,0.045,ND
2017/07/19,10:50,0.73,0.047,ND
2017/07/19,11:00,0.73,0.048,ND
2017/07/19,11:10,0.73,0.054,ND
2017/07/19,11:20,0.75,0.040,ND
2017/07/19,11:30,0.75,0.035,ND
2017/07/19,11:40,0.76,0.041,ND
2017/07/19,11:50,0.78,0.039,ND
2017/07/19,12:00,0.78,0.039,ND
2017/07/19,12:10,0.78,0.048,ND
2017/07/19,12:20,0.76,0.054,ND
2017/07/19,12:30,0.76,0.061,ND
2017/07/19,12:40,0.74,0.079,ND
2017/07/19,12:50,0.72,0.081,ND
2017/07/19,13:00,0.72,0.085,ND
2017/07/19,13:10,0.75,0.068,ND
2017/07/19,13:20,0.77,0.065,ND
2017/07/19,13:30,0.74,0.066,ND
2017/07/19,13:40,0.76,0.041,ND
2017/07/19,13:50,0.76,0.036,ND
2017/07/19,14:00,0.76,0.028,ND
2017/07/19,14:10,0.79,ND,ND
2017/07/19,14:20,0.76,ND,ND
2017/07/19,14:30,0.77,ND,ND
2017/07/19,14:40,0.72,0.035,ND
2017/07/19,14:50,0.73,0.030,ND
2017/07/19,15:00,0.78,ND,ND
2017/07/19,15:10,0.74,ND,ND
2017/07/19,15:20,0.76,ND,ND
2017/07/19,15:30,0.71,0.029,ND
2017/07/19,15:40,0.70,0.027,ND
2017/07/19,15:50,0.74,0.030,ND
2017/07/19,16:00,0.73,0.034,ND
2017/07/19,16:10,0.77,0.040,ND
2017/07/19,16:20,0.70,0.030,ND
2017/07/19,16:30,0.85,ND,ND
2017/07/19,16:40,0.85,ND,ND
2017/07/19,16:50,0.76,ND,ND
2017/07/19,17:00,0.75,ND,ND
2017/07/19,17:10,0.76,ND,ND
2017/07/19,17:20,0.79,ND,ND
2017/07/19,17:30,0.73,ND,ND
2017/07/19,17:40,0.84,ND,ND
2017/07/19,17:50,0.81,0.025,ND
2017/07/19,18:00,0.82,0.036,ND
2017/07/19,18:10,0.81,0.036,ND
2017/07/19,18:20,0.77,0.028,ND
2017/07/19,18:30,0.83,0.027,ND
2017/07/19,18:40,0.86,0.037,ND
2017/07/19,18:50,0.86,0.033,ND
2017/07/19,19:00,0.79,0.031,ND
2017/07/19,19:10,0.81,0.037,ND
2017/07/19,19:20,0.84,0.050,ND
2017/07/19,19:30,0.77,0.044,ND
2017/07/19,19:40,0.78,0.038,ND
2017/07/19,19:50,0.76,0.053,ND
2017/07/19,20:00,0.78,0.060,ND
2017/07/19,20:10,0.77,0.060,ND
2017/07/19,20:20,0.79,0.051,ND
2017/07/19,20:30,0.79,0.058,ND
2017/07/19,20:40,0.78,0.053,ND
2017/07/19,20:50,0.81,0.045,ND
2017/07/19,21:00,0.83,0.027,ND
2017/07/19,21:10,0.82,0.032,ND
2017/07/19,21:20,0.83,0.034,ND
2017/07/19,21:30,0.82,0.036,ND
2017/07/19,21:40,0.84,0.035,ND
2017/07/19,21:50,0.81,0.033,ND
2017/07/19,22:00,0.78,0.043,ND
2017/07/19,22:10,0.81,0.029,ND
2017/07/19,22:20,0.82,0.025,ND
2017/07/19,22:30,0.80,0.027,ND
2017/07/19,22:40,0.78,0.027,ND
2017/07/19,22:50,0.79,0.029,ND
2017/07/19,23:00,0.84,ND,ND
2017/07/19,23:10,0.77,0.034,ND
2017/07/19,23:20,0.74,0.037,ND
2017/07/19,23:30,0.74,0.040,ND
2017/07/19,23:40,0.74,0.042,ND
2017/07/19,23:50,0.73,0.049,ND
